sat.trackr.live / text

‹ back to catalog

STARLINK-5584

NORAD 55769 · 2023-028AE

PAYLOAD ACTIVE UNKNOWN

§ Identity

Operator
Country
US
Launch date
2023-03-03
Launch site
AFWTR
Launch vehicle
Mass (kg)
RCS (m²)

Purposes: comms

External: N2YO · Heavens-Above · Gunter

§ Orbital elements

Epoch: 2026-09-20T21:48:47.153376Z

Period
96.11 min
Inclination
69.9982°
Eccentricity
0.0002939
Mean motion
14.98324776 rev/d
Perigee alt
570.0 km
Apogee alt
574.1 km
Semi-major
6,950.2 km
B*
3.1835e-5
RAAN
92.2980°
Arg perigee
270.8949°
Mean anomaly
89.1874°
Rev number
19,577

§ Raw data

STARLINK-55841 55769U 23028AE  26263.90887909  .00000287  00000+0  31835-4 0  99962 55769  69.9982  92.2980 0002939 270.8949  89.1874 14.98324776195776

JSON: /api/v1/satellites/55769 · /tle

For live sub-satellite position, see the globe view (requires WebGL).

§ Visibility from observer

Set your observer location to see the next 7 days of passes ≥ 10°. The values pass through the URL so the page stays shareable.

No JS? Fill the form by hand. The geolocation button needs JavaScript.